COSMOS 1275 DEB, 13477

Orbit data source: Space-Track

COSMOS 1275 DEB, 13477 is space debris in LEO originally from a launch on Thu, 04 Jun 1981 UTC launched from the Plesetsk Missile And Space Complex (PKMTR). Debris objects in space refer to the collection of defunct objects orbiting the Earth. Examples of debris include non-operational satellites, rocket bodies, and fragments generated from explosions, collisions, or faulty payload assembly.

Loading next visibility...
Identifier
13477, 1981-053FX
Orbit
LEO
Country
Flag of CISCIS
Related business
Manufacturer
Unknown
Mission
Spacecraft
Bus & Motor
Unknown
Mass
Unknown
Launch date (UTC)
1981-06-04 (45 years ago)
Launch vehicle
Unknown
Launch site
Plesetsk Missile And Space Complex (PKMTR)
Object type
Payload
Rocket body
Debris
Shape & HBR
Unknown shape, 0.1 m
Radar Cross Section
Small (<0.1 m²)

Expand to show TLE details & history
Last TLE update: 10 hours ago

TLE from 10 hours ago
0 COSMOS 1275 DEB
1 13477U 81053FX  26034.06937234  .00007335  00000-0  23382-2 0  9996
2 13477  82.9899  46.8996 0050409  20.6638 339.6576 14.38954404226106
Epoch: 2026-02-03T01:39Z
TLE epoch observation values (Epoch: 2026-02-03T01:39:53.770Z)
Latitude
-0.00004°
Longitude
-111.33005°
Altitude
731.213 km
Speed
7.507 km/s
True Right ascension
03h 07m 35s
True Declination
0° 00' 00"
Sunlit
Object was in daylight at epoch
Visualization orbit readout
Latitude
Unknown
Longitude
Unknown
Altitude
Unknown
Speed
Unknown
Apparent Right ascension
Unknown
Apparent Declination
Unknown
Sunlit
N/A
Visualization observer readout
Local Sidereal Time
13:46:40
Azimuth
Unknown
Elevation
Unknown
Doppler factor
Unknown
Orbital elements
Apogee altitude
794.992 km
Perigee altitude
723.036 km
Semi-major axis
7,137.151 km
Eccentricity
0.00504
Inclination
82.9899°
RAAN
46.8996°
Arg. of periapsis
20.6638°
True anomaly
339.4556°
Mean anomaly
339.6576°
Eccentric anomaly
339.55672°
Mean motion
3.59961 °/min
Orbital period
100.01 mins
BSTAR
0.0023382
Loading maneuver chart data...
Computing Atmospheric mass density...

Documentation

Showing up to 5 results
|